User: anonymous   Login
Location: Grums
(59.3529°N, 13.1129°E)
Time: 04:53:44
(UTC+01:00)
Language:

AIST 2D - Orbit

View from above orbital plane
View from above orbital plane
View from above satellite
View from above satellite

Ground track
Ground track

The orbit data is extracted from the following two-line orbital elements,

1 41465U 16026B   21332.93612544  .00003596  00000-0  99885-4 0  9996
2 41465  97.0812 211.2740 0011678 132.4015 283.9078 15.37440408312699
Epoch (UTC): 28 November 2021 22:28:01
Eccentricity: 0.0011678
inclination: 97.0812°
perigee height: 446 km
apogee height: 461 km
right ascension of ascending node: 211.2740°
argument of perigee: 132.4015°
revolutions per day: 15.37440408
mean anomaly at epoch: 283.9078°
orbit number at epoch: 31269

The dashed part of the orbit path shows where the satellite is in the earth's shadow,  

DLR